H1 CPF 2 NER 2025 11 25 9 329 01 glonass141 H2 1908801 9141 44850 2025 11 25 0 0 0 2025 11 28 23 45 0 900 1 1 0 0 0 1 H9 10 0 61004 0.00000 0 2971140.374 11600633.325 22553200.669 10 0 61004 900.00000 0 256165.986 10864003.580 23106152.999 10 0 61004 1800.00000 0 -2546431.846 10326142.154 23211757.972 10 0 61004 2700.00000 0 -5367254.706 10002079.047 22867882.700 10 0 61004 3600.00000 0 -8135443.692 9894390.376 22081068.897 10 0 61004 4500.00000 0 -10781379.251 9993144.004 20866416.703 10 0 61004 5400.00000 0 -13239337.565 10276384.790 19247306.274 10 0 61004 6300.00000 0 -15449994.759 10711140.006 17254961.206 10 0 61004 7200.00000 0 -17362675.945 11254903.911 14927860.752 10 0 61004 8100.00000 0 -18937256.089 11857540.331 12311010.528 10 0 61004 9000.00000 0 -20145633.541 12463524.428 9455084.235 10 0 61004 9900.00000 0 -20972714.281 13014430.030 6415451.658 10 0 61004 10800.00000 0 -21416865.034 13451558.099 3251110.785 10 0 61004 11700.00000 0 -21489815.401 13718595.182 23544.152 10 0 61004 12600.00000 0 -21216012.277 13764188.779 -3204478.391 10 0 61004 13500.00000 0 -20631453.083 13544329.423 -6370126.836 10 0 61004 14400.00000 0 -19782046.585 13024436.966 -9411743.396 10 0 61004 15300.00000 0 -18721570.468 12181060.728 -12270054.936 10 0 61004 16200.00000 0 -17509312.243 11003119.431 -14889340.555 10 0 61004 17100.00000 0 -16207493.822 9492626.314 -17218530.199 10 0 61004 18000.00000 0 -14878589.481 7664866.831 -19212211.642 10 0 61004 18900.00000 0 -13582651.477 5548019.741 -20831525.165 10 0 61004 19800.00000 0 -12374757.211 3182236.151 -22044927.747 10 0 61004 20700.00000 0 -11302686.439 618214.337 -22828811.400 10 0 61004 21600.00000 0 -10404927.000 -2084670.512 -23167963.479 10 0 61004 22500.00000 0 -9709093.211 -4860603.531 -23055860.137 10 0 61004 23400.00000 0 -9230823.305 -7639840.855 -22494787.566 10 0 61004 24300.00000 0 -8973201.619 -10351388.788 -21495789.200 10 0 61004 25200.00000 0 -8926728.830 -12925739.602 -20078440.547 10 0 61004 26100.00000 0 -9069840.130 -15297549.837 -18270456.733 10 0 61004 27000.00000 0 -9369947.979 -17408149.691 -16107141.141 10 0 61004 27900.00000 0 -9784963.883 -19207779.370 -13630686.574 10 0 61004 28800.00000 0 -10265233.431 -20657459.962 -10889343.325 10 0 61004 29700.00000 0 -10755801.550 -21730421.937 -7936471.034 10 0 61004 30600.00000 0 -11198911.128 -22413033.173 -4829493.419 10 0 61004 31500.00000 0 -11536628.610 -22705189.467 -1628776.910 10 0 61004 32400.00000 0 -11713485.083 -22620153.205 1603544.570 10 0 61004 33300.00000 0 -11679021.093 -22183848.934 4804775.450 10 0 61004 34200.00000 0 -11390127.780 -21433647.244 7912871.388 10 0 61004 35100.00000 0 -10813085.879 -20416689.594 10867635.757 10 0 61004 36000.00000 0 -9925217.009 -19187825.533 13611876.927 10 0 61004 36900.00000 0 -8716078.151 -17807249.544 16092504.585 10 0 61004 37800.00000 0 -7188149.355 -16337936.754 18261544.815 10 0 61004 38700.00000 0 -5356985.766 -14842984.566 20077055.504 10 0 61004 39600.00000 0 -3250827.202 -13382970.713 21503925.624 10 0 61004 40500.00000 0 -909680.737 -12013437.090 22514544.242 10 0 61004 41400.00000 0 1616086.800 -10782603.196 23089327.529 10 0 61004 42300.00000 0 4267589.510 -9729403.391 23217094.453 10 0 61004 43200.00000 0 6979621.801 -8881928.725 22895284.452 10 0 61004 44100.00000 0 9683127.364 -8256337.540 22130012.974 10 0 61004 45000.00000 0 12307837.427 -7856279.851 20935963.388 10 0 61004 45900.00000 0 14784970.849 -7672859.528 19336116.526 10 0 61004 46800.00000 0 17049885.658 -7685136.227 17361321.785 10 0 61004 47700.00000 0 19044573.059 -7861146.753 15049716.606 10 0 61004 48600.00000 0 20719890.850 -8159403.911 12446003.886 10 0 61004 49500.00000 0 22037443.338 -8530810.792 9600599.722 10 0 61004 50400.00000 0 22971028.873 -8920910.710 6568666.620 10 0 61004 51300.00000 0 23507593.742 -9272378.392 3409049.888 10 0 61004 52200.00000 0 23647651.425 -9527647.273 183137.227 10 0 61004 53100.00000 0 23405148.538 -9631561.345 -3046336.381 10 0 61004 54000.00000 0 22806782.113 -9533938.310 -6216514.899 10 0 61004 54900.00000 0 21890796.225 -9191934.035 -9265653.919 10 0 61004 55800.00000 0 20705308.256 -8572106.307 -12134334.663 10 0 61004 56700.00000 0 19306235.393 -7652088.390 -14766634.353 10 0 61004 57600.00000 0 17754909.144 -6421799.421 -17111228.817 10 0 61004 58500.00000 0 16115479.203 -4884138.341 -19122404.537 10 0 61004 59400.00000 0 14452216.956 -3055130.222 -20760959.381 10 0 61004 60300.00000 0 12826833.184 -963517.190 -21994973.674 10 0 61004 61200.00000 0 11295923.751 1350189.985 -22800436.093 10 0 61004 62100.00000 0 9908651.331 3835160.667 -23161712.037 10 0 61004 63000.00000 0 8704760.900 6432133.176 -23071845.491 10 0 61004 63900.00000 0 7713012.215 9075664.758 -22532688.819 10 0 61004 64800.00000 0 6950094.490 11696648.546 -21554858.520 10 0 61004 65700.00000 0 6420067.773 14224992.290 -20157518.424 10 0 61004 66600.00000 0 6114353.043 16592346.825 -18367995.246 10 0 61004 67500.00000 0 6012269.683 18734770.452 -16221234.737 10 0 61004 68400.00000 0 6082095.771 20595218.217 -13759109.724 10 0 61004 69300.00000 0 6282604.619 22125752.651 -11029594.267 10 0 61004 70200.00000 0 6565010.896 23289384.445 -8085820.736 10 0 61004 71100.00000 0 6875242.623 24061467.275 -4985038.796 10 0 61004 72000.00000 0 7156441.764 24430589.862 -1787497.232 10 0 61004 72900.00000 0 7351586.842 24398929.587 1444729.155 10 0 61004 73800.00000 0 7406126.204 23982054.633 4648944.422 10 0 61004 74700.00000 0 7270510.493 23208184.664 7763044.520 10 0 61004 75600.00000 0 6902517.510 22116942.595 10726715.073 10 0 61004 76500.00000 0 6269271.702 20757651.025 13482591.055 10 0 61004 77400.00000 0 5348873.576 19187245.502 15977356.533 10 0 61004 78300.00000 0 4131570.807 17467892.332 18162764.153 10 0 61004 79200.00000 0 2620421.977 15664410.365 19996555.804 10 0 61004 80100.00000 0 831424.909 13841603.879 21443267.931 10 0 61004 81000.00000 0 -1206896.410 12061616.835 22474907.235 10 0 61004 81900.00000 0 -3454430.172 10381417.521 23071484.878 10 0 61004 82800.00000 0 -5860902.771 8850517.044 23221399.791 10 0 61004 83700.00000 0 -8367735.032 7509015.296 22921664.235 10 0 61004 84600.00000 0 -10910253.676 6386054.622 22177967.372 10 0 61004 85500.00000 0 -13420168.294 5498744.761 21004575.230 10 0 61005 0.00000 0 -15828212.897 4851603.459 19424068.339 10 0 61005 900.00000 0 -18066845.391 4436535.705 17466919.929 10 0 61005 1800.00000 0 -20072890.930 4233353.576 15170923.563 10 0 61005 2700.00000 0 -21790024.316 4210814.306 12580476.805 10 0 61005 3600.00000 0 -23170984.995 4328134.658 9745735.201 10 0 61005 4500.00000 0 -24179433.191 4536918.154 6721650.810 10 0 61005 5400.00000 0 -24791368.574 4783414.560 3566912.972 10 0 61005 6300.00000 0 -24996050.886 5011016.393 342811.240 10 0 61005 7200.00000 0 -24796382.602 5162886.635 -2887957.553 10 0 61005 8100.00000 0 -24208736.221 5184605.692 -6062514.535 10 0 61005 9000.00000 0 -23262232.336 5026724.238 -9119031.758 10 0 61005 9900.00000 0 -21997498.054 4647112.140 -11997947.720 10 0 61005 10800.00000 0 -20464957.635 4013001.990 -14643140.481 10 0 61005 11700.00000 0 -18722727.344 3102638.645 -17003034.187 10 0 61005 12600.00000 0 -16834203.568 1906462.849 -19031616.118 10 0 61005 13500.00000 0 -14865446.372 427777.008 -20689343.396 10 0 61005 14400.00000 0 -12882469.351 -1317136.726 -21943920.891 10 0 61005 15300.00000 0 -10948550.522 -3299452.365 -22770934.632 10 0 61005 16200.00000 0 -9121677.814 -5478772.667 -23154328.264 10 0 61005 17100.00000 0 -7452236.722 -7804598.191 -23086713.319 10 0 61005 18000.00000 0 -5981037.069 -10218231.487 -22569507.630 10 0 61005 18900.00000 0 -4737761.099 -12655036.704 -21612899.686 10 0 61005 19800.00000 0 -3739896.953 -15046959.978 -20235640.244 10 0 61005 20700.00000 0 -2992200.854 -17325204.936 -18464665.965 10 0 61005 21600.00000 0 -2486708.710 -19422951.365 -16334563.136 10 0 61005 22500.00000 0 -2203294.581 -21278003.365 -13886882.633 10 0 61005 23400.00000 0 -2110750.295 -22835256.454 -11169320.236 10 0 61005 24300.00000 0 -2168338.595 -24048880.928 -8234778.962 10 0 61005 25200.00000 0 -2327752.287 -24884130.869 -5140332.335 10 0 61005 26100.00000 0 -2535395.022 -25318704.146 -1946109.416 10 0 61005 27000.00000 0 -2734886.005 -25343597.727 1285876.193 10 0 61005 27900.00000 0 -2869681.900 -24963423.956 4492930.260 10 0 61005 28800.00000 0 -2885704.632 -24196176.035 7612891.143 10 0 61005 29700.00000 0 -2733863.976 -23072453.988 10585328.877 10 0 61005 30600.00000 0 -2372368.644 -21634184.694 13352707.226 10 0 61005 31500.00000 0 -1768728.779 -19932890.491 15861486.830 10 0 61005 32400.00000 0 -901365.970 -18027579.131 18063149.035 10 0 61005 33300.00000 0 239236.623 -15982343.223 19915121.765 10 0 61005 34200.00000 0 1649892.248 -13863768.792 21381590.800 10 0 61005 35100.00000 0 3314603.855 -11738260.020 22434182.097 10 0 61005 36000.00000 0 5204997.989 -9669390.247 23052503.165 10 0 61005 36900.00000 0 7281282.379 -7715387.988 23224533.950 10 0 61005 37800.00000 0 9493688.997 -5926860.964 22946860.272 10 0 61005 38700.00000 0 11784344.520 -4344851.355 22224745.427 10 0 61005 39600.00000 0 14089492.502 -2999301.974 21072038.212 10 0 61005 40500.00000 0 16341976.998 -1907996.398 19510918.336 10 0 61005 41400.00000 0 18473886.321 -1076016.707 17571482.912 10 0 61005 42300.00000 0 20419248.403 -495741.458 15291180.533 10 0 61005 43200.00000 0 22116666.599 -147384.183 12714102.231 10 0 61005 44100.00000 0 23511786.416 -50.311 9890141.428 10 0 61005 45000.00000 0 24559490.010 -13268.691 6874037.774 10 0 61005 45900.00000 0 25225725.884 -138933.679 3724322.297 10 0 61005 46800.00000 0 25488896.000 -323576.148 502183.698 10 0 61005 47700.00000 0 25340740.598 -510867.336 -2729722.316 10 0 61005 48600.00000 0 24786682.022 -644249.086 -5908497.214 10 0 61005 49500.00000 0 23845611.559 -669578.089 -8972232.745 10 0 61005 50400.00000 0 22549127.054 -537670.699 -11861227.878 10 0 61005 51300.00000 0 20940252.495 -206638.723 -14519164.566 10 0 61005 52200.00000 0 19071692.984 356084.664 -16894218.109 10 0 61005 53100.00000 0 17003698.505 1172116.718 -18940079.169 10 0 61005 54000.00000 0 14801626.634 2250965.358 -20616866.432 10 0 61005 54900.00000 0 12533307.155 3589388.633 -21891911.338 10 0 61005 55800.00000 0 10266319.917 5171301.817 -22740399.012 10 0 61005 56700.00000 0 8065300.730 6968237.168 -23145852.766 10 0 61005 57600.00000 0 5989388.601 8940337.731 -23100452.774 10 0 61005 58500.00000 0 4089921.336 11037843.800 -22605183.062 10 0 61005 59400.00000 0 2408475.629 13203009.749 -21669804.432 10 0 61005 60300.00000 0 975332.840 15372370.756 -20312654.483 10 0 61005 61200.00000 0 -191566.597 17479264.173 -18560279.311 10 0 61005 62100.00000 0 -1087138.075 19456499.657 -16446904.800 10 0 61005 63000.00000 0 -1719117.557 21239066.051 -14013758.527 10 0 61005 63900.00000 0 -2107479.953 22766761.565 -11308256.240 10 0 61005 64800.00000 0 -2283337.989 23986637.239 -8383069.484 10 0 61005 65700.00000 0 -2287370.257 24855151.760 -5295093.169 10 0 61005 66600.00000 0 -2167846.806 25339947.953 -2104333.876 10 0 61005 67500.00000 0 -1978337.335 25421177.471 1127258.983 10 0 61005 68400.00000 0 -1775200.070 25092319.264 4336996.048 10 0 61005 69300.00000 0 -1614958.270 24360458.754 7462661.335 10 0 61005 70200.00000 0 -1551675.546 23246017.274 10443712.545 10 0 61005 71100.00000 0 -1634440.795 21781944.146 13222445.438 10 0 61005 72000.00000 0 -1905068.540 20012406.070 15745100.314 10 0 61005 72900.00000 0 -2396111.102 17991029.038 17962890.145 10 0 61005 73800.00000 0 -3129265.752 15778766.155 19832931.606 10 0 61005 74700.00000 0 -4114243.461 13441479.837 21319062.287 10 0 61005 75600.00000 0 -5348146.642 11047338.135 22392529.578 10 0 61005 76500.00000 0 -6815382.362 8664132.214 23032539.166 10 0 61005 77400.00000 0 -8488115.474 6356624.916 23226653.437 10 0 61005 78300.00000 0 -10327244.100 4184038.899 22971032.724 10 0 61005 79200.00000 0 -12283858.512 2197786.988 22270514.883 10 0 61005 80100.00000 0 -14301124.577 439537.618 21138531.326 10 0 61005 81000.00000 0 -16316515.434 -1060305.409 19596860.346 10 0 61005 81900.00000 0 -18264300.430 -2283646.349 17675221.299 10 0 61005 82800.00000 0 -20078189.287 -3225221.026 15410715.991 10 0 61005 83700.00000 0 -21694022.476 -3892578.582 12847126.473 10 0 61005 84600.00000 0 -23052396.160 -4305521.979 10034081.165 10 0 61005 85500.00000 0 -24101111.997 -4495030.296 7026104.095 10 0 61006 0.00000 0 -24797348.605 -4501707.686 3881564.832 10 0 61006 900.00000 0 -25109462.872 -4373824.017 661547.101 10 0 61006 1800.00000 0 -25018343.092 -4165029.902 -2571337.841 10 0 61006 2700.00000 0 -24518256.559 -3931843.027 -5754175.359 10 0 61006 3600.00000 0 -23617153.171 -3731012.903 -8824980.385 10 0 61006 4500.00000 0 -22336411.053 -3616876.809 -11723915.691 10 0 61006 5400.00000 0 -20710033.516 -3638820.490 -14394470.249 10 0 61006 6300.00000 0 -18783330.155 -3838952.901 -16784573.366 10 0 61006 7200.00000 0 -16611137.113 -4250095.347 -18847621.553 10 0 61006 8100.00000 0 -14255651.185 -4894171.929 -20543397.063 10 0 61006 9000.00000 0 -11783968.961 -5781071.006 -21838859.355 10 0 61006 9900.00000 0 -9265434.700 -6908027.187 -22708793.495 10 0 61006 10800.00000 0 -6768908.584 -8259550.969 -23136302.694 10 0 61006 11700.00000 0 -4360070.106 -9807909.760 -23113135.410 10 0 61006 12600.00000 0 -2098869.635 -11514140.394 -22639840.970 10 0 61006 13500.00000 0 -37234.513 -13329550.668 -21725751.158 10 0 61006 14400.00000 0 1782875.033 -15197646.656 -20388788.714 10 0 61006 15300.00000 0 3330979.932 -17056404.533 -18655107.196 10 0 61006 16200.00000 0 4589104.499 -18840791.186 -16558569.915 10 0 61006 17100.00000 0 5552266.024 -20485427.433 -14140078.841 10 0 61006 18000.00000 0 6228413.465 -21927281.806 -11446767.302 10 0 61006 18900.00000 0 6637820.299 -23108281.753 -8531072.938 10 0 61006 19800.00000 0 6811959.550 -23977732.764 -5449709.624 10 0 61006 20700.00000 0 6791910.711 -24494444.242 -2262559.054 10 0 61006 21600.00000 0 6626367.786 -24628473.489 968495.908 10 0 61006 22500.00000 0 6369334.183 -24362415.445 4180773.077 10 0 61006 23400.00000 0 6077602.947 -23692185.011 7312004.359 10 0 61006 24300.00000 0 5808129.451 -22627260.171 10301537.280 10 0 61006 25200.00000 0 5615407.628 -21190376.637 13091501.659 10 0 61006 26100.00000 0 5548960.290 -19416687.525 15627919.409 10 0 61006 27000.00000 0 5651048.787 -17352423.621 17861736.932 10 0 61006 27900.00000 0 5954697.837 -15053110.129 19749761.281 10 0 61006 28800.00000 0 6482117.961 -12581413.833 21255483.252 10 0 61006 29700.00000 0 7243591.353 -10004709.394 22349772.825 10 0 61006 30600.00000 0 8236867.835 -7392464.636 23011434.738 10 0 61006 31500.00000 0 9447096.562 -4813551.861 23227614.412 10 0 61006 32400.00000 0 10847297.189 -2333594.986 22994047.009 10 0 61006 33300.00000 0 12399352.162 -12460.776 22315144.990 10 0 61006 34200.00000 0 14055480.385 2098003.371 21203922.178 10 0 61006 35100.00000 0 15760132.687 3955892.580 19681755.003 10 0 61006 36000.00000 0 17452231.972 5530749.705 17777984.377 10 0 61006 36900.00000 0 19067666.276 6804590.554 15529364.404 10 0 61006 37800.00000 0 20541932.046 7772406.639 12979366.976 10 0 61006 38700.00000 0 21812818.023 8442124.348 10177354.062 10 0 61006 39600.00000 0 22823017.655 8834021.901 7177632.332 10 0 61006 40500.00000 0 23522560.198 8979628.160 4038407.287 10 0 61006 41400.00000 0 23870957.522 8920149.253 820656.505 10 0 61006 42300.00000 0 23838974.960 8704489.156 -2413056.305 10 0 61006 43200.00000 0 23409949.895 8386947.965 -5599803.121 10 0 61006 44100.00000 0 22580600.651 8024695.678 -8677524.841 10 0 61006 45000.00000 0 21361289.655 7675129.330 -11586250.824 10 0 61006 45900.00000 0 19775728.069 7393226.626 -14269279.748 10 0 61006 46800.00000 0 17860132.894 7229009.699 -16674297.452 10 0 61006 47700.00000 0 15661871.036 7225228.038 -18754408.646 10 0 61006 48600.00000 0 13237646.734 7415360.333 -20469061.300 10 0 61006 49500.00000 0 10651308.300 7822021.307 -21784844.838 10 0 61006 50400.00000 0 7971366.277 8455842.181 -22676146.015 10 0 61006 51300.00000 0 5268327.321 9314873.038 -23125649.460 10 0 61006 52200.00000 0 2611955.656 10384532.976 -23124673.169 10 0 61006 53100.00000 0 68576.881 11638110.447 -22673332.715 10 0 61006 54000.00000 0 -2301463.274 13037792.701 -21780531.427 10 0 61006 54900.00000 0 -4446079.504 14536180.763 -20463777.347 10 0 61006 55800.00000 0 -6323372.334 16078225.735 -18748831.210 10 0 61006 56700.00000 0 -7903119.193 17603504.443 -16669193.037 10 0 61006 57600.00000 0 -9167770.566 19048738.190 -14265438.051 10 0 61006 58500.00000 0 -10112911.579 20350448.186 -11584415.647 10 0 61006 59400.00000 0 -10747172.065 21447635.634 -8678327.705 10 0 61006 60300.00000 0 -11091591.398 22284373.641 -5603704.914 10 0 61006 61200.00000 0 -11178467.278 22812201.996 -2420301.690 10 0 61006 62100.00000 0 -11049739.230 22992224.461 810068.263 10 0 61006 63000.00000 0 -10754976.913 22796820.952 4024732.702 10 0 61006 63900.00000 0 -10349059.620 22210903.363 7161374.327 10 0 61006 64800.00000 0 -9889645.872 21232663.126 10159233.478 10 0 61006 65700.00000 0 -9434540.372 19873779.869 12960277.064 10 0 61006 66600.00000 0 -9039069.337 18159083.075 15510311.633 10 0 61006 67500.00000 0 -8753574.418 16125681.240 17760019.989 10 0 61006 68400.00000 0 -8621130.033 13821594.855 19665902.419 10 0 61006 69300.00000 0 -8675579.278 11303949.814 21191105.624 10 0 61006 70200.00000 0 -8939970.202 8636805.542 22306124.639 10 0 61006 71100.00000 0 -9425457.506 5888706.846 22989365.432 10 0 61006 72000.00000 0 -10130715.551 3130059.496 23227558.274 10 0 61006 72900.00000 0 -11041887.561 430436.597 23016014.536 10 0 61006 73800.00000 0 -12133073.956 -2144074.536 22358722.178 10 0 61006 74700.00000 0 -13367340.643 -4533376.750 21268277.767 10 0 61006 75600.00000 0 -14698206.731 -6685616.431 19765655.625 10 0 61006 76500.00000 0 -16071551.244 -8559093.592 17879817.373 10 0 61006 77400.00000 0 -17427860.852 -10123750.061 15647167.981 10 0 61006 78300.00000 0 -18704726.084 -11362174.253 13110867.209 10 0 61006 79200.00000 0 -19839482.623 -12270080.602 10320008.115 10 0 61006 80100.00000 0 -20771887.468 -12856243.340 7328677.149 10 0 61006 81000.00000 0 -21446717.574 -13141886.954 4194912.856 10 0 61006 81900.00000 0 -21816181.062 -13159558.477 979582.691 10 0 61006 82800.00000 0 -21842038.278 -12951528.738 -2254800.473 10 0 61006 83700.00000 0 -21497341.635 -12567789.928 -5445298.875 10 0 61006 84600.00000 0 -20767718.923 -12063734.288 -8529783.058 10 0 61006 85500.00000 0 -19652143.877 -11497612.732 -11448152.599 10 0 61007 0.00000 0 -18163159.624 -10927881.947 -14143519.175 10 0 61007 900.00000 0 -16326542.948 -10410553.240 -16563328.950 10 0 61007 1800.00000 0 -14180424.108 -9996657.580 -18660397.565 10 0 61007 2700.00000 0 -11773895.583 -9729934.534 -20393841.254 10 0 61007 3600.00000 0 -9165169.433 -9644845.060 -21729881.417 10 0 61007 4500.00000 0 -6419359.638 -9764993.005 -22642507.874 10 0 61007 5400.00000 0 -3605982.455 -10102022.945 -23113987.389 10 0 61007 6300.00000 0 -796279.542 -10655041.430 -23135207.560 10 0 61007 7200.00000 0 1939524.047 -11410586.221 -22705849.655 10 0 61007 8100.00000 0 4534912.409 -12343144.680 -21834387.472 10 0 61007 9000.00000 0 6929609.717 -13416199.016 -20537912.834 10 0 61007 9900.00000 0 9071844.357 -14583753.733 -18841791.775 10 0 61007 10800.00000 0 10920252.722 -15792280.139 -16779158.849 10 0 61007 11700.00000 0 12445344.521 -16982995.247 -14390260.124 10 0 61007 12600.00000 0 13630470.109 -18094378.284 -11721658.445 10 0 61007 13500.00000 0 14472251.463 -19064818.204 -8825317.169 10 0 61007 14400.00000 0 14980461.164 -19835280.223 -5757580.909 10 0 61007 15300.00000 0 15177356.857 -20351878.843 -2578073.846 10 0 61007 16200.00000 0 15096501.635 -20568249.030 651462.433 10 0 61007 17100.00000 0 14781122.101 -20447616.021 3868368.533 10 0 61007 18000.00000 0 14282075.121 -19964477.097 7010280.725 10 0 61007 18900.00000 0 13655510.226 -19105825.247 10016334.751 10 0 61007 19800.00000 0 12960327.015 -17871863.923 12828336.966 10 0 61007 20700.00000 0 12255534.903 -16276183.409 15391880.633 10 0 61007 21600.00000 0 11597626.169 -14345391.739 17657386.734 10 0 61007 22500.00000 0 11038072.177 -12118215.523 19581050.257 10 0 61007 23400.00000 0 10621047.121 -9644107.783 21125674.948 10 0 61007 24300.00000 0 10381473.881 -6981419.936 22261381.711 10 0 61007 25200.00000 0 10343473.061 -4195212.618 22966178.241 10 0 61007 26100.00000 0 10519279.580 -1354794.639 23226379.836 10 0 61007 27000.00000 0 10908671.918 1468909.735 23036873.969 10 0 61007 27900.00000 0 11498938.132 4206058.064 22401223.708 10 0 61007 28800.00000 0 12265380.763 6790541.725 21331607.735 10 0 61007 29700.00000 0 13172340.649 9162484.438 19848597.410 10 0 61007 30600.00000 0 14174698.223 11270485.114 17980774.009 10 0 61007 31500.00000 0 15219791.002 13073512.853 15764192.115 10 0 61007 32400.00000 0 16249668.405 14542375.826 13241697.902 10 0 61007 33300.00000 0 17203590.580 15660702.946 10462113.876 10 0 61007 34200.00000 0 18020667.053 16425397.061 7479304.409 10 0 61007 35100.00000 0 18642524.534 16846540.215 4351139.037 10 0 61007 36000.00000 0 19015891.180 16946754.396 1138372.841 10 0 61007 36900.00000 0 19094987.422 16760044.100 -2096534.528 10 0 61007 37800.00000 0 18843621.036 16330169.140 -5290638.058 10 0 61007 38700.00000 0 18236896.112 15708616.318 -8381740.437 10 0 61007 39600.00000 0 17262461.639 14952255.959 -11309613.925 10 0 61007 40500.00000 0 15921244.843 14120783.051 -14017185.998 10 0 61007 41400.00000 0 14227636.232 13274052.212 -16451664.380 10 0 61007 42300.00000 0 12209116.750 12469420.416 -18565578.183 10 0 61007 43200.00000 0 9905341.289 11759211.160 -20317713.766 10 0 61007 44100.00000 0 7366716.013 11188408.513 -21673926.197 10 0 61007 45000.00000 0 4652528.606 10792679.570 -22607809.887 10 0 61007 45900.00000 0 1828709.528 10596809.591 -23101215.061 10 0 61007 46800.00000 0 -1034682.096 10613616.317 -23144600.002 10 0 61007 47700.00000 0 -3866142.683 10843389.302 -22737212.456 10 0 61007 48600.00000 0 -6595466.343 11273877.602 -21887097.111 10 0 61007 49500.00000 0 -9156430.528 11880825.692 -20610929.570 10 0 61007 50400.00000 0 -11489313.410 12629034.133 -18933680.733 10 0 61007 51300.00000 0 -13543138.522 13473899.254 -16888118.826 10 0 61007 52200.00000 0 -15277554.006 14363365.817 -14514159.522 10 0 61007 53100.00000 0 -16664269.301 15240209.269 -11858077.560 10 0 61007 54000.00000 0 -17687991.031 16044550.375 -8971595.958 10 0 61007 54900.00000 0 -18346820.950 16716495.396 -5910871.260 10 0 61007 55800.00000 0 -18652101.569 17198789.928 -2735395.262 10 0 61007 56700.00000 0 -18627718.270 17439374.198 493164.827 10 0 61007 57600.00000 0 -18308889.470 17393732.108 3712164.835 10 0 61007 58500.00000 0 -17740497.690 17026935.274 6859197.083 10 0 61007 59400.00000 0 -16975033.326 16315296.406 9873295.301 10 0 61007 60300.00000 0 -16070238.753 15247562.993 12696107.947 10 0 61007 61200.00000 0 -15086552.410 13825601.575 15273017.722 10 0 61007 62100.00000 0 -14084460.378 12064544.215 17554186.509 10 0 61007 63000.00000 0 -13121866.219 9992390.990 19495506.662 10 0 61007 63900.00000 0 -12251588.671 7649084.740 21059441.516 10 0 61007 64800.00000 0 -11519091.044 5085095.820 22215740.200 10 0 61007 65700.00000 0 -10960536.310 2359574.508 22942014.226 10 0 61007 66600.00000 0 -10601248.327 -461853.795 23224165.699 10 0 61007 67500.00000 0 -10454642.790 -3309560.984 23056659.592 10 0 61007 68400.00000 0 -10521672.325 -6112555.874 22442635.059 10 0 61007 69300.00000 0 -10790809.022 -8801183.651 21393853.412 10 0 61007 70200.00000 0 -11238565.731 -11309775.179 19930483.068 10 0 61007 71100.00000 0 -11830535.247 -13579137.911 18080724.470 10 0 61007 72000.00000 0 -12522905.111 -15558786.093 15880280.828 10 0 61007 72900.00000 0 -13264385.792 -17208818.285 13371683.274 10 0 61007 73800.00000 0 -13998472.518 -18501364.214 10603481.859 10 0 61007 74700.00000 0 -14665946.598 -19421540.306 7629316.602 10 0 61007 75600.00000 0 -15207511.379 -19967873.458 4506885.420 10 0 61007 76500.00000 0 -15566451.683 -20152174.527 1296828.150 10 0 61007 77400.00000 0 -15691203.819 -19998866.126 -1938451.886 10 0 61007 78300.00000 0 -15537726.389 -19543792.393 -5136005.708 10 0 61007 79200.00000 0 -15071570.006 -18832560.541 -8233571.587 10 0 61007 80100.00000 0 -14269556.388 -17918484.157 -11170797.985 10 0 61007 81000.00000 0 -13120993.665 -16860215.441 -13890431.498 10 0 61007 81900.00000 0 -11628374.333 -15719167.134 -16339445.368 10 0 61007 82800.00000 0 -9807524.373 -14556834.016 -18470085.202 10 0 61007 83700.00000 0 -7687195.454 -13432128.254 -20240810.447 10 0 61007 84600.00000 0 -5308115.976 -12398842.227 -21617112.359 10 0 61007 85500.00000 0 -2721539.837 -11503346.936 -22572191.912 99